Hourly Data Report for June 28, 2022

TORONTO CITY
ONTARIO
Current Station Operator: ECCC - MSC

43°40'00.000" N
79°24'00.000" W
112.50 m
6158355
71508
XTO

Download Data

Hourly Data (June 2022)
Hourly Data Report for June 28, 2022
TIME
LST
Temp Definition
°C
Dew Point Definition
°C
Rel Hum Definition
%
Precip. Amount Definition
mm

Wind Dir Definition
10's deg

Wind Spd Definition
km/h
Visibility Definition
km
Stn Press Definition
kPa
Hmdx Definition


Wind Chill Definition


Weather Definition


00:00 14.1 7.7 65 0.0       100.75     LegendNANA
01:00 13.8 7.7 67 0.0       100.75     LegendNANA
02:00 13.1 7.4 68 0.0       100.74     LegendNANA
03:00 12.4 7.3 71 0.0       100.74     LegendNANA
04:00 12.2 7.3 72 0.0       100.77     LegendNANA
05:00 12.3 7.5 73 0.0       100.84     LegendNANA
06:00 12.7 7.7 72 0.0       100.85     LegendNANA
07:00 14.2 7.8 66 0.0       100.90     LegendNANA
08:00 16.3 8.6 60 0.0       100.93     LegendNANA
09:00 18.6 8.7 52 0.0       100.93     LegendNANA
10:00 18.2 8.7 54 0.0       100.97     LegendNANA
11:00 19.8 9.6 52 0.0       100.97     LegendNANA
12:00 20.3 10.5 53 0.0       100.97     LegendNANA
13:00 21.2 10.3 50 0.0       100.95     LegendNANA
14:00 21.6 9.3 45 0.0       100.91     LegendNANA
15:00 22.1 9.4 44 0.0       100.85     LegendNANA
16:00 22.2 9.0 43 0.0       100.79     LegendNANA
17:00 22.0 10.6 48 0.0       100.73     LegendNANA
18:00 20.8 10.7 52 0.0       100.70     LegendNANA
19:00 20.1 10.5 54 0.0       100.74     LegendNANA
20:00 19.0 11.1 60 0.0       100.75     LegendNANA
21:00 18.1 11.0 63 0.0       100.76     LegendNANA
22:00 17.5 10.6 64 0.0       100.79     LegendNANA
23:00 16.5 10.3 67 0.0       100.75     LegendNANA

Notes on Data Quality.

Legend

  • E = Estimated
  • M = Missing
  • NA = Not Available*
  • [empty] = Indicates an unobserved value
Date modified: